SAS540 ENGM-ENZV

Flight info

Callsign SAS540
Flight time 0h 37m
Altitude 28000
Route ATLAP DCT IPMOD DCT ROPNO
Aircraft A320/M-SDE3FGHIRWY/LB1

Departure

Time 2026-04-09 22:17
Airport Oslo-Gardermoen International Airport (ENGM)

Arrival

Time 2026-04-09 22:54
Airport Stavanger Airport, Sola (ENZV)
Time Latitude Longitude Altitude Speed Heading
2026-04-09 21:42 60.19474 11.10161 677 ft 0 kts 232°
2026-04-09 22:03 60.19483 11.10184 681 ft 4 kts 233°
2026-04-09 22:04 60.19499 11.10228 682 ft 4 kts 236°
2026-04-09 22:04 60.19513 11.10273 682 ft 4 kts 237°
2026-04-09 22:04 60.19528 11.10318 682 ft 4 kts 233°
2026-04-09 22:04 60.19546 11.10360 682 ft 4 kts 222°
2026-04-09 22:05 60.19566 11.10391 682 ft 4 kts 202°
2026-04-09 22:05 60.19618 11.10420 679 ft 4 kts 197°
2026-04-09 22:05 60.19643 11.10436 679 ft 4 kts 197°
2026-04-09 22:06 60.19669 11.10451 682 ft 3 kts 197°
2026-04-09 22:06 60.19672 11.10453 681 ft 0 kts 197°
2026-04-09 22:08 60.19666 11.10449 681 ft 4 kts 197°
2026-04-09 22:09 60.19616 11.10418 679 ft 11 kts 197°
2026-04-09 22:09 60.19536 11.10420 681 ft 12 kts 130°
2026-04-09 22:09 60.19512 11.10586 682 ft 13 kts 104°
2026-04-09 22:09 60.19487 11.10770 682 ft 14 kts 106°
2026-04-09 22:10 60.19457 11.10967 681 ft 15 kts 107°
2026-04-09 22:10 60.19427 11.11178 684 ft 16 kts 107°
2026-04-09 22:10 60.19457 11.11309 682 ft 11 kts 15°
2026-04-09 22:10 60.19526 11.11346 684 ft 9 kts 15°
2026-04-09 22:11 60.19580 11.11379 681 ft 7 kts 18°
2026-04-09 22:11 60.19630 11.11409 685 ft 9 kts 15°
2026-04-09 22:11 60.19725 11.11459 680 ft 18 kts 16°
2026-04-09 22:11 60.19844 11.11530 684 ft 17 kts 17°
2026-04-09 22:12 60.19937 11.11551 687 ft 11 kts 327°
2026-04-09 22:12 60.19991 11.11459 686 ft 10 kts
2026-04-09 22:12 60.20042 11.11489 686 ft 6 kts 15°
2026-04-09 22:12 60.20057 11.11498 688 ft 0 kts 16°
2026-04-09 22:13 60.20058 11.11498 688 ft 1 kts 16°
2026-04-09 22:14 60.20108 11.11537 685 ft 11 kts 39°
2026-04-09 22:14 60.20107 11.11648 684 ft 6 kts 110°
2026-04-09 22:14 60.20097 11.11704 681 ft 4 kts 110°
2026-04-09 22:14 60.20086 11.11763 688 ft 6 kts 109°
2026-04-09 22:15 60.20068 11.11872 681 ft 10 kts 107°
2026-04-09 22:15 60.20051 11.12010 689 ft 9 kts 105°
2026-04-09 22:15 60.20024 11.12142 683 ft 12 kts 128°
2026-04-09 22:15 60.19947 11.12148 687 ft 6 kts 196°
2026-04-09 22:16 60.19944 11.12146 687 ft 0 kts 197°
2026-04-09 22:16 60.19738 11.12026 687 ft 68 kts 195°
2026-04-09 22:17 60.19066 11.11641 686 ft 129 kts 196°
2026-04-09 22:17 60.18049 11.11054 817 ft 164 kts 195°
2026-04-09 22:17 60.16968 11.10409 1551 ft 162 kts 193°
2026-04-09 22:17 60.15897 11.09778 2403 ft 159 kts 192°
2026-04-09 22:18 60.14817 11.09171 3036 ft 166 kts 192°
2026-04-09 22:18 60.13650 11.08552 3489 ft 181 kts 192°
2026-04-09 22:18 60.12387 11.07908 3929 ft 194 kts 192°
2026-04-09 22:18 60.11058 11.06959 4304 ft 217 kts 211°
2026-04-09 22:19 60.10048 11.04490 4722 ft 248 kts 242°
2026-04-09 22:19 60.09685 11.01002 5428 ft 266 kts 267°
2026-04-09 22:19 60.09824 10.97243 6305 ft 273 kts 271°
2026-04-09 22:19 60.10013 10.93452 7226 ft 274 kts 271°
2026-04-09 22:20 60.10220 10.89633 8103 ft 277 kts 271°
2026-04-09 22:20 60.10429 10.85751 8899 ft 283 kts 270°
2026-04-09 22:20 60.10613 10.81770 9649 ft 290 kts 270°
2026-04-09 22:20 60.10799 10.77696 10361 ft 298 kts 270°
2026-04-09 22:21 60.10992 10.73454 10739 ft 317 kts 270°
2026-04-09 22:21 60.11170 10.68886 10979 ft 340 kts 269°
2026-04-09 22:21 60.11352 10.63999 11149 ft 363 kts 270°
2026-04-09 22:21 60.11548 10.58861 11612 ft 373 kts 270°
2026-04-09 22:22 60.11758 10.53641 12280 ft 378 kts 270°
2026-04-09 22:22 60.11978 10.48363 12962 ft 382 kts 270°
2026-04-09 22:22 60.12201 10.43030 13648 ft 386 kts 270°
2026-04-09 22:22 60.12423 10.37653 14268 ft 388 kts 270°
2026-04-09 22:23 60.12642 10.32354 15409 ft 371 kts 270°
2026-04-09 22:23 60.12850 10.27335 16705 ft 355 kts 270°
2026-04-09 22:23 60.13045 10.22423 17576 ft 352 kts 270°
2026-04-09 22:23 60.13234 10.17510 18253 ft 354 kts 270°
2026-04-09 22:24 60.13418 10.12616 18815 ft 357 kts 270°
2026-04-09 22:24 60.13602 10.07623 19371 ft 360 kts 270°
2026-04-09 22:24 60.13784 10.02588 19933 ft 363 kts 270°
2026-04-09 22:24 60.13969 9.97514 20496 ft 366 kts 270°
2026-04-09 22:25 60.14155 9.92398 21033 ft 369 kts 270°
2026-04-09 22:25 60.14263 9.87242 21544 ft 370 kts 264°
2026-04-09 22:25 60.14032 9.82105 22054 ft 370 kts 256°
2026-04-09 22:25 60.13419 9.77108 22562 ft 368 kts 245°
2026-04-09 22:26 60.12315 9.72482 23045 ft 369 kts 239°
2026-04-09 22:26 60.11142 9.67893 23543 ft 372 kts 239°
2026-04-09 22:26 60.09948 9.63263 23978 ft 375 kts 239°
2026-04-09 22:26 60.08743 9.58606 24404 ft 378 kts 239°
2026-04-09 22:27 60.07525 9.53920 24825 ft 380 kts 239°
2026-04-09 22:27 60.06297 9.49212 25248 ft 383 kts 239°
2026-04-09 22:27 60.05061 9.44474 25651 ft 385 kts 239°
2026-04-09 22:27 60.03813 9.39698 26065 ft 388 kts 239°
2026-04-09 22:28 60.02557 9.34909 26459 ft 390 kts 239°
2026-04-09 22:28 60.01290 9.30096 26855 ft 392 kts 239°
2026-04-09 22:28 60.00020 9.25269 27291 ft 393 kts 239°
2026-04-09 22:28 59.98739 9.20407 27514 ft 400 kts 239°
2026-04-09 22:29 59.97425 9.15445 27646 ft 408 kts 239°
2026-04-09 22:29 59.96080 9.10385 27773 ft 416 kts 239°
2026-04-09 22:29 59.94709 9.05237 27926 ft 424 kts 239°
2026-04-09 22:29 59.93333 9.00072 28036 ft 431 kts 239°
2026-04-09 22:30 59.91911 8.94762 28173 ft 437 kts 239°
2026-04-09 22:30 59.90465 8.89380 28310 ft 443 kts 239°
2026-04-09 22:30 59.89001 8.83930 28456 ft 448 kts 239°
2026-04-09 22:30 59.87505 8.78366 28732 ft 450 kts 239°
2026-04-09 22:31 59.86043 8.72948 29104 ft 450 kts 239°
2026-04-09 22:31 59.84560 8.67462 29463 ft 451 kts 239°
2026-04-09 22:31 59.83056 8.61899 29889 ft 450 kts 239°
2026-04-09 22:31 59.81577 8.56433 30138 ft 450 kts 239°
2026-04-09 22:32 59.80101 8.51001 30264 ft 453 kts 238°
2026-04-09 22:32 59.78600 8.45501 30507 ft 454 kts 238°
2026-04-09 22:32 59.77100 8.40018 30764 ft 452 kts 238°
2026-04-09 22:32 59.75598 8.34563 31005 ft 450 kts 238°
2026-04-09 22:33 59.74096 8.29112 31242 ft 451 kts 238°
2026-04-09 22:33 59.72590 8.23673 31525 ft 451 kts 238°
2026-04-09 22:33 59.71080 8.18209 31852 ft 451 kts 238°
2026-04-09 22:33 59.69576 8.12772 32063 ft 450 kts 238°
2026-04-09 22:34 59.66604 8.01894 32090 ft 449 kts 239°
2026-04-09 22:34 59.65169 7.96406 31831 ft 449 kts 240°
2026-04-09 22:34 59.63747 7.90888 30903 ft 453 kts 240°
2026-04-09 22:35 59.62312 7.85304 29833 ft 458 kts 240°
2026-04-09 22:35 59.60857 7.79678 28673 ft 462 kts 238°
2026-04-09 22:35 59.59390 7.74049 27608 ft 461 kts 239°
2026-04-09 22:35 59.57910 7.68413 26545 ft 462 kts 239°
2026-04-09 22:36 59.56421 7.62771 25402 ft 465 kts 239°
2026-04-09 22:36 59.54929 7.57133 24249 ft 462 kts 239°
2026-04-09 22:36 59.53439 7.51522 23099 ft 457 kts 239°
2026-04-09 22:36 59.51987 7.46045 22112 ft 447 kts 239°
2026-04-09 22:37 59.50562 7.40691 21218 ft 435 kts 239°
2026-04-09 22:37 59.49176 7.35491 20453 ft 423 kts 238°
2026-04-09 22:37 59.47825 7.30441 19707 ft 410 kts 238°
2026-04-09 22:37 59.46502 7.25523 18948 ft 402 kts 238°
2026-04-09 22:38 59.45200 7.20706 18230 ft 397 kts 238°
2026-04-09 22:38 59.43919 7.15952 17493 ft 389 kts 238°
2026-04-09 22:38 59.42668 7.11299 16892 ft 383 kts 237°
2026-04-09 22:38 59.41432 7.06726 16208 ft 377 kts 237°
2026-04-09 22:39 59.40198 7.02193 15596 ft 377 kts 237°
2026-04-09 22:39 59.38965 6.97663 14960 ft 374 kts 236°
2026-04-09 22:39 59.37757 6.93240 14375 ft 371 kts 236°
2026-04-09 22:39 59.36526 6.88744 13793 ft 368 kts 236°
2026-04-09 22:40 59.35335 6.84401 13177 ft 364 kts 236°
2026-04-09 22:40 59.34144 6.80058 12637 ft 360 kts 236°
2026-04-09 22:40 59.32963 6.75758 12102 ft 357 kts 236°
2026-04-09 22:40 59.31782 6.71480 11580 ft 355 kts 236°
2026-04-09 22:41 59.30623 6.67307 11313 ft 342 kts 236°
2026-04-09 22:41 59.29519 6.63307 11196 ft 326 kts 235°
2026-04-09 22:41 59.28475 6.59501 11061 ft 308 kts 236°
2026-04-09 22:41 59.27474 6.55864 10937 ft 298 kts 236°
2026-04-09 22:42 59.26509 6.52368 10815 ft 287 kts 235°
2026-04-09 22:42 59.25574 6.48986 10680 ft 278 kts 236°
2026-04-09 22:42 59.24957 6.46759 10589 ft 272 kts 235°
2026-04-09 22:42 59.24060 6.43540 10356 ft 268 kts 234°
2026-04-09 22:43 59.23175 6.40361 10122 ft 266 kts 235°
2026-04-09 22:43 59.22289 6.37184 9914 ft 265 kts 234°
2026-04-09 22:43 59.21403 6.34030 9787 ft 265 kts 235°
2026-04-09 22:43 59.20526 6.30916 9652 ft 265 kts 234°
2026-04-09 22:44 59.19639 6.27769 9512 ft 265 kts 234°
2026-04-09 22:44 59.18745 6.24603 9349 ft 268 kts 234°
2026-04-09 22:44 59.17854 6.21441 8992 ft 266 kts 233°
2026-04-09 22:44 59.16968 6.18289 8599 ft 266 kts 234°
2026-04-09 22:45 59.16079 6.15136 8176 ft 262 kts 233°
2026-04-09 22:45 59.15207 6.12039 7770 ft 259 kts 232°
2026-04-09 22:45 59.14353 6.09009 7379 ft 251 kts 232°
2026-04-09 22:45 59.13532 6.06074 6991 ft 243 kts 231°
2026-04-09 22:46 59.12718 6.03196 6627 ft 243 kts 230°
2026-04-09 22:46 59.11898 6.00322 6241 ft 243 kts 229°
2026-04-09 22:46 59.11079 5.97457 5852 ft 242 kts 228°
2026-04-09 22:46 59.10264 5.94603 5479 ft 241 kts 228°
2026-04-09 22:47 59.09452 5.91752 5105 ft 240 kts 227°
2026-04-09 22:47 59.08647 5.88924 4737 ft 238 kts 227°
2026-04-09 22:47 59.07843 5.86109 4343 ft 237 kts 227°
2026-04-09 22:47 59.07059 5.83354 4192 ft 226 kts 226°
2026-04-09 22:48 59.06323 5.80741 4140 ft 215 kts 226°
2026-04-09 22:48 59.05619 5.78248 4048 ft 206 kts 225°
2026-04-09 22:48 59.04955 5.75833 3945 ft 201 kts 228°
2026-04-09 22:48 59.04443 5.73258 3685 ft 210 kts 237°
2026-04-09 22:49 59.04047 5.70544 3465 ft 204 kts 237°
2026-04-09 22:49 59.03578 5.68049 3182 ft 191 kts 229°
2026-04-09 22:49 59.02961 5.65909 2898 ft 170 kts 213°
2026-04-09 22:49 59.02143 5.64527 2632 ft 149 kts 194°
2026-04-09 22:50 59.01261 5.63775 2434 ft 127 kts 182°
2026-04-09 22:50 59.00448 5.63425 2252 ft 115 kts 174°
2026-04-09 22:50 58.99663 5.63363 2108 ft 112 kts 168°
2026-04-09 22:50 58.98870 5.63412 1965 ft 114 kts 168°
2026-04-09 22:51 58.98087 5.63451 1796 ft 111 kts 167°
2026-04-09 22:51 58.97310 5.63500 1619 ft 112 kts 168°
2026-04-09 22:51 58.96533 5.63529 1475 ft 111 kts 168°
2026-04-09 22:51 58.95758 5.63552 1320 ft 112 kts 169°
2026-04-09 22:52 58.94982 5.63566 1193 ft 112 kts 170°
2026-04-09 22:52 58.94209 5.63584 1051 ft 111 kts 169°
2026-04-09 22:52 58.93427 5.63638 823 ft 115 kts 169°
2026-04-09 22:52 58.92632 5.63637 639 ft 115 kts 173°
2026-04-09 22:53 58.91857 5.63637 536 ft 109 kts 171°
2026-04-09 22:53 58.91064 5.63701 402 ft 115 kts 174°
2026-04-09 22:53 58.90263 5.63703 232 ft 114 kts 171°
2026-04-09 22:53 58.89486 5.63729 94 ft 111 kts 172°
2026-04-09 22:54 58.88751 5.63763 39 ft 93 kts 174°
2026-04-09 22:54 58.88240 5.63776 31 ft 50 kts 180°
2026-04-09 22:54 58.88039 5.63779 32 ft 18 kts 180°
2026-04-09 22:54 58.87938 5.63778 33 ft 12 kts 180°
2026-04-09 22:55 58.87854 5.63779 33 ft 12 kts 179°
2026-04-09 22:55 58.87774 5.63781 32 ft 11 kts 179°
2026-04-09 22:55 58.87703 5.63774 33 ft 9 kts 206°
2026-04-09 22:55 58.87698 5.63662 33 ft 10 kts 287°
2026-04-09 22:56 58.87720 5.63519 32 ft 12 kts 286°
2026-04-09 22:56 58.87744 5.63359 32 ft 13 kts 286°
2026-04-09 22:56 58.87779 5.63256 31 ft 7 kts 358°
2026-04-09 22:56 58.87835 5.63288 31 ft 9 kts 15°
2026-04-09 22:57 58.87904 5.63336 30 ft 11 kts 19°
2026-04-09 22:57 58.87961 5.63245 29 ft 14 kts 279°
2026-04-09 22:57 58.88005 5.63106 28 ft 11 kts 330°
2026-04-09 22:57 58.88058 5.63141 28 ft 7 kts 20°
2026-04-09 22:58 58.88102 5.63074 29 ft 9 kts 316°
2026-04-09 22:58 58.88124 5.63032 25 ft 2 kts 316°
2026-04-09 22:58 58.88129 5.63022 25 ft 0 kts 316°